Flag for Germany Weather past 2 weeks in Itzehoe, Schleswig-Holstein, Germany

Now
70 °F

Mild.


Feels Like: 70 °F
Forecast: 60 / 79 °F
Wind: 5 mph from Southwest

Location: Hohn

Current Time: Jul 31, 2014 at 9:47:25 PM

Latest Report: Jul 31, 2014 at 8:20 PM


Visibility: N/A

Pressure: 29.92 "Hg

Humidity: 64%

Dew point: 57 °F

Location of ItzehoeLocation

Historic Weather in Itzehoe — Graph

°F

Itzehoe temperature yesterday

Maximum temperature yesterday: 75 °F (at 12:20 PM)
Minimum temperature yesterday: 61 °F (at 3:20 AM)
Average temperature yesterday: 68 °F

Past Weeks' High & Low Weather Summary

 TemperatureHumidityPressure
High88 °F (Jul 19, 2:20 PM)100% (Jul 27, 4:20 AM)30.21 "Hg (Jul 27, 4:20 AM)
Low48 °F (Jul 17, 4:20 AM)30% (Jul 25, 5:20 PM)29.77 "Hg (Jul 30, 4:20 AM)
Average70 °F68%30.00 "Hg
* Reported Jul 16 8:20 PM — Jul 31 8:20 PM, Itzehoe, Weather by CustomWeather, © 2014

Note: Actual official high and low records may vary slightly from our data, if they occured in-between our weather recording intervals... More about our weather records

Advertising

Itzehoe weather history for previous 24 hours

 ConditionsComfort  
Time TempWeatherWind HumidityBarometerVisibility
8:20 PM
Jul 31
70 °FMild.5 mph64%29.92 "HgN/A
7:20 PM72 °FMild.7 mph61%29.92 "HgN/A
6:20 PM72 °FScattered clouds.13 mph57%29.92 "HgN/A
5:20 PM73 °FScattered clouds.16 mph50%29.92 "HgN/A
4:20 PM73 °FScattered clouds.16 mph50%29.92 "HgN/A
3:20 PM73 °FScattered clouds.16 mph53%29.92 "HgN/A
2:20 PM72 °FScattered clouds.17 mph57%29.92 "HgN/A
1:20 PM73 °FScattered clouds.17 mph53%29.92 "HgN/A
12:20 PM68 °FScattered clouds.12 mph73%29.92 "HgN/A
11:20 AM68 °FScattered clouds.8 mph73%29.92 "HgN/A
10:20 AM66 °FPartly sunny.12 mph68%29.92 "HgN/A
9:20 AM64 °FPartly sunny.9 mph78%29.92 "HgN/A
8:20 AM64 °FSprinkles. Broken clouds.8 mph83%29.92 "HgN/A
7:20 AM63 °FPassing clouds.6 mph83%29.89 "HgN/A
6:20 AM57 °FPassing clouds.5 mph94%29.89 "HgN/A
5:20 AM57 °FPassing clouds.5 mph88%29.89 "HgN/A
5:00 AM57 °FPassing clouds.3 mph88%29.89 "HgN/A
Weather by CustomWeather, © 2014

See weather overviewHow to use our weather pages